Content
SEND FEEDBACK

Daily
Averages
Monthly
Summary
Romania

TIMISOARA, ROMANIA


Home > Europe > Romania
Elevation: 102 meters     Latitude: 45 45N     Longitude: 021 14E

WEATHER
 
SELECT A DAY
Number of Records: 276,280;   Date Range: 7/1/96 - 7/23/14
 
SHARE

PRINT THIS DATA

[ ← Previous Day ]
WEATHER ALMANAC - 31 JANUARY, 2013
[ Next Day → ]
[ °F ]   °C
Weather ElementAverageHighLow
Temperature6.2 °C11 °C (1:30 pm)1 °C (11:00 pm)
Dewpoint3 °C5 °C (8:00 am)0 °C (7:00 pm)
Humidity81.5 %100 % (1:30 am)54 % (3:30 pm)
Barometer1014.6 hPa1016.3 hPa (11:00 am)1011.2 hPa (2:00 am)
Wind Speed17.2 km/h44.4 km/h (1:00 pm)
Weather ElementAverage
Visibility8.7 km
Wind DirectionSW (223.4 °)

Weather ElementTotal
Precipitation---
Heating Degree Days12.3 (Base 18.3)
Averaged from 47 records on 31 January, 2013
WEATHER CONDITIONS BREAKOUT
WIND DIRECTION BREAKOUT
WEATHER BY HOUR - 31 JANUARY, 2013
[ °F ]   °C
Local TimeTemperatureDewpointHumidityBarometerVisibilityWind DirectionWind SpeedGust SpeedPrecipitationEventsConditions
12:30 AM5 °C4 °C93 %1013.2 hPa8 kmESE (120°)9.3 km/h
1:00 AM5 °C4 °C93 %1012.2 hPa8 kmSE (130°)9.3 km/h
1:30 AM4 °C4 °C100 %1012.2 hPa6 kmESE (110°)11.1 km/h
2:00 AM4 °C4 °C100 %1011.2 hPa5 kmSE (130°)9.3 km/hMist
2:30 AM4 °C4 °C100 %1011.2 hPa5 kmESE (120°)9.3 km/hMist
3:00 AM4 °C4 °C100 %1011.2 hPa6 kmESE (110°)9.3 km/h
3:30 AM5 °C4 °C93 %1011.2 hPa6.9 kmEast (100°)9.3 km/h
4:00 AM5 °C4 °C93 %1011.2 hPa6 kmNE (40°)7.4 km/hRainLight Rain
4:30 AM5 °C4 °C93 %1011.2 hPa8 kmVariable1.9 km/hRainLight Rain
5:00 AM5 °C4 °C93 %1012.2 hPa8 kmNW (320°)1.9 km/hRainLight Rain
5:30 AM5 °C4 °C93 %1013.2 hPa6.9 kmWSW (250°)9.3 km/hRainLight Rain
6:00 AM5 °C4 °C93 %1012.2 hPa9 kmSW (230°)5.6 km/hRainLight Rain
6:30 AM5 °C4 °C93 %1012.2 hPa10 kmSSW (200°)11.1 km/hRainLight Rain
7:00 AM5 °C4 °C93 %1013.2 hPa10 kmSW (220°)11.1 km/hRainLight Rain
7:30 AM5 °C4 °C93 %1013.2 hPa10 kmWSW (250°)14.8 km/hRainLight Rain
8:00 AM5 °C5 °C100 %1013.2 hPa10 kmWSW (240°)11.1 km/hMostly Cloudy
8:30 AM6 °C5 °C93 %1013.2 hPa10 kmWest (260°)9.3 km/hScattered Clouds
9:00 AM6 °C5 °C93 %1014.2 hPa10 kmWest (260°)16.7 km/hPartly Cloudy
9:30 AM7 °C4 °C81 %1015.2 hPa10 kmWest (270°)24.1 km/hPartly Cloudy
10:00 AM6 °C5 °C93 %1015.2 hPaWest (270°)24.1 km/hClear
10:30 AM8 °C5 °C81 %1015.2 hPaWest (280°)25.9 km/hClear
11:00 AM8 °C5 °C81 %1016.3 hPaWNW (300°)31.5 km/hClear
11:30 AM9 °C5 °C76 %1016.3 hPaNW (310°)25.9 km/hClear
12:00 PM10 °C5 °C71 %1016.3 hPaNW (320°)31.5 km/hClear
12:30 PM10 °C5 °C71 %1016.3 hPa10 kmNW (320°)31.5 km/hPartly Cloudy
1:00 PM10 °C4 °C66 %1016.3 hPa10 kmNW (310°)44.4 km/hPartly Cloudy
1:30 PM11 °C3 °C58 %1016.3 hPa10 kmNW (310°)44.4 km/hPartly Cloudy
2:00 PM11 °C3 °C58 %1016.3 hPa10 kmNW (310°)44.4 km/hScattered Clouds
2:30 PM11 °C3 °C58 %1016.3 hPa10 kmNW (310°)37 km/hScattered Clouds
3:00 PM10 °C3 °C62 %1016.3 hPa10 kmNW (310°)33.3 km/hPartly Cloudy
3:30 PM11 °C2 °C54 %1016.3 hPa10 kmNW (310°)33.3 km/hPartly Cloudy
4:00 PM10 °C3 °C62 %1016.3 hPa10 kmNW (310°)29.6 km/hPartly Cloudy
4:30 PM10 °C2 °C58 %1016.3 hPa10 kmWNW (300°)22.2 km/hPartly Cloudy
5:00 PM9 °C3 °C66 %1016.3 hPaWNW (300°)18.5 km/hClear
5:30 PM7 °C2 °C71 %1016.3 hPaWNW (290°)14.8 km/hClear
6:00 PM5 °C1 °C76 %1016.3 hPaWest (280°)16.7 km/hClear
6:30 PM5 °C1 °C76 %1016.3 hPaWest (280°)13 km/hClear
7:00 PM4 °C0 °C75 %1016.3 hPaWest (260°)14.8 km/hClear
7:30 PM5 °C0 °C70 %1016.3 hPaWSW (250°)13 km/hClear
8:00 PM5 °C0 °C70 %1016.3 hPaWSW (240°)13 km/hClear
8:30 PM5 °C0 °C70 %1016.3 hPaSSW (210°)7.4 km/hClear
9:00 PM4 °C0 °C75 %1016.3 hPaVariable3.7 km/hClear
9:30 PM3 °C1 °C87 %1015.2 hPaSouth (180°)9.3 km/hClear
10:00 PM3 °C0 °C81 %1015.2 hPaSouth (180°)7.4 km/hClear
10:30 PM2 °C0 °C87 %1014.2 hPaSSE (150°)11.1 km/hClear
11:00 PM1 °C0 °C93 %1014.2 hPaESE (120°)9.3 km/hClear
11:30 PM2 °C1 °C93 %1014.2 hPaSE (130°)7.4 km/hClear
Hourly data recorded from LRTR, located 0 kilometers away from Timisoara, Romania







STORIES FROM OUR PARTNERS